CYGFM01 (41887 NORAD) Tracking and Keplerian Element Data

This shows tracking and keplerian element data for the satellite.

Feedback or suggestion? Click here.




ElementValue
Catalog41887
NameCYGFM01
Epoch Orbit10998
Epoch Day344.91036828
Epoch Year2018
RAAN263.9774
Inclination34.9532
Eccentricity0.0016078
Argument of Perigee138.8566
Mean Anonmoly221.336
Mean Motion15.14087178
Decay Rate3.4E-06
L11 41887U 16078D 18344.91036828 .00000340 00000-0 20013-4 0 9994
L22 41887 34.9532 263.9774 0016078 138.8566 221.3360 15.14087178109989

Live tracking and technical data element details for CYGFM01 (NORAD 41887). CYGFM01 can be tracked NOW for your location showing map with azimuth and elevation plus other details from your city location.

Track the satellite on the map from your city or location and see movement details for azimuth, elevation, latitude, longitude, range, height, and movement on the map or in text.







IsCatalogInMostPopularTable: catalog: 41887, numindb: 122
Update: records affected: 1



GetName: 41887 CYGFM01

Hit Count: updated at: Thu, 13 Dec 2018 05:05:43 GMT